Weather History for London Gatwick, United Kingdom

Change the Weather History Date:

Tuesday, October 30, 2012

  Actual Average Record
Temperature  
Mean Temperature 46 °F -  
Max Temperature 50 °F 50 °F 66 °F (2005)
Min Temperature 41 °F 37 °F 21 °F (1997)
Degree Days  
Heating Degree Days 20    
Moisture  
Dew Point 40 °F    
Average Humidity 81    
Maximum Humidity 93    
Minimum Humidity 62    
Precipitation  
Precipitation 0.00 in 0.10 in - ()
Sea Level Pressure  
Sea Level Pressure 29.66 in    
Wind  
Wind Speed 5 mph ()    
Max Wind Speed 10 mph    
Max Gust Speed -    
Visibility 5.4 miles    
Events      
Averages and records for this station are not official NWS values.
T = Trace of Precipitation, MM = Missing Value Source: Averaged Metar Reports

Daily Weather History Graph

Daily Weather History Graph

Search for Another Location

Airport:

Trip Planner

Search our weather history database for the weather conditions in past years. The results will help you decide how hot, cold, wet, or windy it might be!

Date:

Astronomy

Oct. 30, 2012 Rise Set
Actual Time 6:50 AM GMT 4:37 PM GMT
Civil Twilight 6:15 AM GMT 5:12 PM GMT
Nautical Twilight 5:36 AM GMT 5:51 PM GMT
Astronomical Twilight 4:58 AM GMT 6:29 PM GMT
Moon 4:48 PM GMT (10/30) 7:30 AM GMT (10/30)
Length of Visible Light 10h 56m
Length of Day
9h 47m
Full, 100% of the Moon is Illuminated
Oct 30
Full
Nov 7
Last Quarter
Nov 13
New
Nov 20
First Quarter
Nov 28
Full

Hourly Weather History & Observations

Time (GMT) Temp. Windchill Dew Point Humidity Pressure Visibility Wind Dir Wind Speed Gust Speed Precip Events Conditions
12:20 AM 46.4 °F 45.2 °F 44.6 °F 93% 29.74 in - West 3.5 mph - N/A   Clear
12:50 AM 46.4 °F 44.3 °F 44.6 °F 93% 29.74 in - West 4.6 mph - N/A   Clear
1:20 AM 44.6 °F 41.4 °F 42.8 °F 93% 29.74 in - NW 5.8 mph - N/A   Clear
1:50 AM 44.6 °F 41.4 °F 42.8 °F 93% 29.74 in 4.3 mi NW 5.8 mph - N/A   Mostly Cloudy
2:20 AM 44.6 °F 41.4 °F 42.8 °F 93% 29.74 in 4.3 mi NW 5.8 mph - N/A   Scattered Clouds
2:50 AM 42.8 °F 41.1 °F 41.0 °F 93% 29.71 in 4.3 mi Variable 3.5 mph - N/A   Scattered Clouds
3:20 AM 42.8 °F 40.1 °F 41.0 °F 93% 29.71 in 3.7 mi WNW 4.6 mph - N/A   Partly Cloudy
3:50 AM 44.6 °F 40.2 °F 42.8 °F 93% 29.71 in 4.3 mi NNW 8.1 mph - N/A   Unknown
4:20 AM 44.6 °F 41.4 °F 42.8 °F 93% 29.71 in 4.3 mi NW 5.8 mph - N/A   Unknown
4:50 AM 44.6 °F 40.7 °F 42.8 °F 93% 29.71 in 4.3 mi NW 6.9 mph - N/A   Unknown
5:20 AM 42.8 °F 38.6 °F 41.0 °F 93% 29.71 in 3.7 mi NW 6.9 mph - N/A   Scattered Clouds
5:50 AM 42.8 °F 39.3 °F 41.0 °F 93% 29.71 in 3.1 mi WNW 5.8 mph - N/A   Haze
6:20 AM 42.8 °F 40.1 °F 41.0 °F 93% 29.71 in 2.8 mi WNW 4.6 mph - N/A   Haze
6:50 AM 41.0 °F - 39.2 °F 93% 29.71 in 3.1 mi SSW 2.3 mph - N/A   Partly Cloudy
7:20 AM 41.0 °F - 39.2 °F 93% 29.71 in 3.1 mi Variable 2.3 mph - N/A   Haze
7:50 AM 41.0 °F 39.0 °F 39.2 °F 93% 29.74 in 3.1 mi Variable 3.5 mph - N/A   Haze
8:20 AM 42.8 °F 39.3 °F 41.0 °F 93% 29.71 in 5.6 mi WNW 5.8 mph - N/A   Unknown
8:50 AM 44.6 °F 42.2 °F 41.0 °F 87% 29.71 in 6.2 mi WNW 4.6 mph - N/A   Partly Cloudy
9:20 AM 46.4 °F 42.9 °F 41.0 °F 81% 29.71 in 6.2 mi WNW 6.9 mph - N/A   Partly Cloudy
9:50 AM 46.4 °F 42.4 °F 41.0 °F 81% 29.71 in 6.2 mi WNW 8.1 mph - N/A   Partly Cloudy
10:20 AM 48.2 °F - 41.0 °F 76% 29.71 in 6.2 mi NW 8.1 mph - N/A   Partly Cloudy
10:50 AM 48.2 °F - 39.2 °F 71% 29.71 in 6.2 mi WNW 6.9 mph - N/A   Partly Cloudy
11:20 AM 48.2 °F - 37.4 °F 66% 29.71 in 6.2 mi WNW 8.1 mph - N/A   Partly Cloudy
11:50 AM 48.2 °F - 37.4 °F 66% 29.68 in 6.2 mi WNW 8.1 mph - N/A   Partly Cloudy
12:20 PM 48.2 °F - 37.4 °F 66% 29.68 in 6.2 mi NW 5.8 mph - N/A   Scattered Clouds
12:50 PM 50.0 °F - 37.4 °F 62% 29.68 in 6.2 mi West 6.9 mph - N/A   Partly Cloudy
1:20 PM 50.0 °F - 37.4 °F 62% 29.65 in 6.2 mi West 8.1 mph - N/A   Partly Cloudy
1:50 PM 50.0 °F - 37.4 °F 62% 29.65 in 6.2 mi West 9.2 mph - N/A   Scattered Clouds
2:20 PM 50.0 °F - 37.4 °F 62% 29.65 in 6.2 mi West 10.4 mph - N/A   Partly Cloudy
2:50 PM 50.0 °F - 37.4 °F 62% 29.62 in 6.2 mi WSW 9.2 mph - N/A   Scattered Clouds
3:20 PM 48.2 °F - 39.2 °F 71% 29.62 in 6.2 mi West 8.1 mph - N/A   Mostly Cloudy
3:50 PM 48.2 °F - 37.4 °F 66% 29.62 in 6.2 mi West 5.8 mph - N/A   Partly Cloudy
4:20 PM 48.2 °F - 37.4 °F 66% 29.59 in - SW 3.5 mph - N/A   Clear
4:50 PM 44.6 °F - 37.4 °F 76% 29.59 in - SSW 2.3 mph - N/A   Clear
5:20 PM 44.6 °F 43.1 °F 37.4 °F 76% 29.59 in 6.2 mi South 3.5 mph - N/A   Partly Cloudy
5:50 PM 44.6 °F - 39.2 °F 81% 29.59 in 6.2 mi Variable 2.3 mph - N/A   Scattered Clouds
6:20 PM 44.6 °F - 39.2 °F 81% 29.59 in 6.2 mi SW 2.3 mph - N/A   Mostly Cloudy
6:50 PM 44.6 °F 43.1 °F 39.2 °F 81% 29.59 in 6.2 mi WSW 3.5 mph - N/A   Mostly Cloudy
7:20 PM 44.6 °F 43.1 °F 39.2 °F 81% 29.59 in 6.2 mi SSW 3.5 mph - N/A   Mostly Cloudy
7:50 PM 44.6 °F 43.1 °F 39.2 °F 81% 29.59 in 6.2 mi SSW 3.5 mph - N/A   Mostly Cloudy
8:20 PM 46.4 °F 45.2 °F 41.0 °F 81% 29.59 in 6.2 mi SSW 3.5 mph - N/A   Mostly Cloudy
8:50 PM 46.4 °F 45.2 °F 41.0 °F 81% 29.56 in 6.2 mi SSW 3.5 mph - N/A   Mostly Cloudy
9:20 PM 46.4 °F 45.2 °F 39.2 °F 76% 29.56 in 6.2 mi SW 3.5 mph - N/A   Mostly Cloudy
9:50 PM 44.6 °F - 39.2 °F 81% 29.56 in - SSW 2.3 mph - N/A   Clear
10:20 PM 44.6 °F - 41.0 °F 87% 29.53 in - SSE 2.3 mph - N/A   Clear
10:50 PM 44.6 °F - 39.2 °F 81% 29.53 in - Calm Calm - N/A   Clear
11:20 PM 44.6 °F - 41.0 °F 87% 29.53 in 6.2 mi Variable 2.3 mph - N/A   Mostly Cloudy
11:50 PM 44.6 °F - 41.0 °F 87% 29.50 in 6.2 mi WSW 2.3 mph - N/A   Mostly Cloudy